Flag for Mauritania Weather past 2 weeks in Nouadhibou, Mauritania

Now
70 °F

Clear.


Feels Like: 70 °F
Forecast: 63 / 75 °F
Wind: 18 mph from North

Location: Nouadhibou Airport

Current Time: May 29, 2015 at 9:26:51 AM

Latest Report: May 29, 2015 at 9:00 AM


Visibility: 5 mi

Pressure: 29.95 "Hg

Humidity: 69%

Dew point: 59 °F

Location of NouadhibouLocation

Historic Weather in Nouadhibou — Graph

°F

Nouadhibou temperature yesterday

Maximum temperature yesterday: 79 °F (at 12:00 PM)
Minimum temperature yesterday: 64 °F (at 12:00 AM)
Average temperature yesterday: 69 °F

Past Weeks' High & Low Weather Summary

 TemperatureHumidityPressure
High108 °F (May 16, 2:00 PM)88% (May 19, 5:00 AM)32.75 "Hg (May 19, 5:00 AM)
Low61 °F (May 24, 4:00 AM)9% (May 16, 1:00 PM)29.74 "Hg (May 15, 6:00 PM)
Average71 °F67%29.95 "Hg
* Reported May 14 8:00 AM — May 29 8:00 AM, Nouadhibou, Weather by CustomWeather, © 2015

Note: Actual official high and low records may vary slightly from our data, if they occured in-between our weather recording intervals... More about our weather records

Advertising

Nouadhibou weather history for previous 24 hours

 ConditionsComfort  
Time TempWeatherWind HumidityBarometerVisibility
8:00 AM
Fri, May 29
66 °FClear.15 mph78%29.95 "Hg5 mi
7:00 AM64 °FClear.14 mph83%29.92 "Hg5 mi
6:00 AM64 °FClear.13 mph83%29.92 "Hg5 mi
3:00 AM64 °FClear.15 mph83%29.92 "Hg5 mi
2:00 AM66 °FClear.15 mph78%29.92 "Hg5 mi
1:00 AM66 °FClear.16 mph78%29.95 "Hg5 mi
12:00 AM66 °FClear.15 mph78%29.95 "Hg5 mi
11:00 PM
Thu, May 28
66 °FClear.14 mph78%29.95 "Hg5 mi
10:00 PM66 °FClear.14 mph73%29.95 "Hg5 mi
9:00 PM66 °FClear.16 mph78%29.92 "Hg5 mi
8:00 PM66 °FClear.18 mph83%29.92 "Hg5 mi
7:00 PM70 °FClear.20 mph73%29.92 "Hg5 mi
6:00 PM70 °FClear.21 mph73%29.89 "Hg5 mi
5:00 PM72 °FClear.22 mph69%29.89 "Hg5 mi
4:00 PM72 °FClear.21 mph69%29.92 "Hg5 mi
3:00 PM73 °FClear.21 mph65%29.92 "Hg5 mi
2:00 PM73 °FClear.17 mph65%29.95 "Hg5 mi
1:00 PM79 °FClear.16 mph54%29.95 "Hg5 mi
12:00 PM79 °FClear.22 mph45%29.98 "Hg5 mi
11:00 AM75 °FClear.21 mph54%29.98 "Hg5 mi
10:00 AM72 °FClear.18 mph69%29.98 "Hg5 mi
9:00 AM66 °FPassing clouds.18 mph83%29.98 "Hg5 mi
Weather by CustomWeather, © 2015

See weather overviewHow to use our weather pages